Regional Weather Roundup
Issued by NWS

Home | Current Version | Previous Version | Graphics & Text | Print | Product List | Glossary On
Versions: 1 2 3 4 5 6 7 8 9 10 11 12 13 14 15 16 17 18 19 20 21 22 23 24 25 26 27 28 29 30 31 32 33 34 35 36 37 38 39 40 41 42 43 44 45 46 47 48 49 50
000
ASUS43 KDTX 012310
RWRMI
MICHIGAN HOURLY REGIONAL WEATHER ROUNDUP
NATIONAL WEATHER SERVICE DETROIT/PONTIAC MI
700 PM EDT TUE SEP 01 2015

NOTE: "FAIR" INDICATES FEW OR NO CLOUDS BELOW 12,000 FEET WITH NO
SIGNIFICANT WEATHER AND/OR OBSTRUCTION TO VISIBILITY.

MIZ047>049-052>055-059>063-066>070-074>076-081>083-020000-
SOUTHEAST LOWER MICHIGAN

CITY           SKY/WX    TMP DP  RH WIND       PRES   REMARKS
ADRIAN         MOSUNNY   86  67  52 SW7       30.04S
ALMA           SUNNY     84  71  66 S3        30.01S
ANN ARBOR      SUNNY     85  69  58 SW5       30.03S
BAD AXE        SUNNY     82  69  64 CALM      30.03R
DETROIT CITY   SUNNY     85  68  56 SW12      30.02S
DETROIT        MOSUNNY   87  67  51 SW8       30.03S HX  90
FLINT          SUNNY     87  66  49 SW5       30.02S
GROSSE ILE     MOSUNNY   79  73  83 S6        30.02S
HILLSDALE      MOSUNNY   82  68  62 CALM      30.06S
HOWELL         SUNNY     85  62  45 SW5       30.03S

CITY           SKY/WX    TMP DP  RH WIND       PRES   REMARKS
JACKSON        SUNNY     83  69  62 SW6       30.04S
LAMBERTVILLE   SUNNY     85  67  54 SW3       30.04S
LANSING        SUNNY     85  67  54 SW7       30.03S
LAPEER         FAIR      85  66  51 SW5       30.03S
MASON          SUNNY     84  65  52 SW3       30.03S
MONROE         MOSUNNY   87  64  46 SW5       30.02F
MT. CLEMENS    MOSUNNY   82  71  70 SE6       30.01S
PONTIAC        MOSUNNY   86  64  47 SW7       30.03R
PORT HOPE        N/A     74  71  91 SE7       30.00F
PORT HURON     SUNNY     82  70  65 CALM      30.02S
TRI CITIES     SUNNY     85  70  60 S5        30.01S
MIDLAND        FAIR      85  68  57 S3        29.99S
TROY           SUNNY     88  65  46 SW8       30.04S
SAGINAW HB     SUNNY     82  68  61 S5        30.00S
$$
MIZ043>046-050>051-056>058-064>065-071>073-077>080-020000-
SOUTHWEST LOWER MICHIGAN

CITY           SKY/WX    TMP DP  RH WIND       PRES   REMARKS
BATTLE CREEK   PTSUNNY   83  72  69 W6        30.04R
BENTON HARBOR  SUNNY     83  73  72 SW6       30.02R
BIG RAPIDS     SUNNY     82  72  70 SW6       30.01S
COLDWATER      SUNNY     82  68  62 W5        30.05R
FREMONT        FAIR      81  73  77 SW9       30.01R
HOLLAND        SUNNY     82  71  69 SW10      30.02S
GRAND RAPIDS   MOSUNNY   84  71  65 SW8       30.01S
IONIA          FAIR      86  70  58 S3        30.01S HX  90
KALAMAZOO      MOSUNNY   80  70  71 W5        30.03S
LUDINGTON      SUNNY     81  72  73 S10G17    29.99S
MARSHALL       MOSUNNY   83  70  63 SW9       30.04R
MOUNT PLEASANT SUNNY     88  68  51 SW7       30.00R HX  91
MUSKEGON       PTSUNNY   79  70  74 S9        30.01S
SOUTH HAVEN    MOSUNNY   82  71  69 SW6       30.02S
$$
MIZ016>042-020000-
NORTHERN LOWER MICHIGAN

CITY           SKY/WX    TMP DP  RH WIND       PRES   REMARKS
ALPENA         SUNNY     78  68  71 E3        29.98S
BEAVER ISLAND  MOSUNNY   73  69  86 SW10G16   29.96F
BELLAIRE       PTSUNNY   86  68  54 CALM      29.96R
CADILLAC       MOSUNNY   83  71  66 SW10      30.02R
CHARLEVOIX     PTSUNNY   79  71  75 W8        29.99S
FRANKFORT      SUNNY     78  71  79 SW6       29.96S
GAYLORD        SUNNY     83  68  60 SW9       30.00S
GRAYLING       MOSUNNY   83  68  60 CALM      30.01R
HARBOR SPRINGS PTSUNNY   80  70  71 W3        29.96S
HOUGHTON LAKE  SUNNY     82  68  62 S6        30.01S
MANISTEE       SUNNY     82  70  65 S13       29.98S
OSCODA         SUNNY     82  68  64 S9        29.98S
PELLSTON       MOSUNNY   84  71  65 W8        29.96S
ROGERS CITY    SUNNY     82  69  65 CALM      29.97S
TRAVERSE CITY  MOSUNNY   87  68  52 SW7       29.95R HX  90
$$
MIZ007>008-015-020000-
EASTERN UPPER MICHIGAN

CITY           SKY/WX    TMP DP  RH WIND       PRES   REMARKS
KINROSS        MOSUNNY   81  72  74 SW7       29.96S
MACKINAC ISLAN MOSUNNY   75  65  71 E5        29.97R
NEWBERRY       MOSUNNY   78  70  75 S15G21    29.94S
S. S. MARIE    CLOUDY    81  70  69 SW8       29.94S
MUNISING         N/A     84  72  67 S6        29.89S
$$
MIZ004>006-011>014-085-020000-
CENTRAL UPPER MICHIGAN

CITY           SKY/WX    TMP DP  RH WIND       PRES   REMARKS
MANISTIQUE     PTSUNNY   69  66  91 SW9       29.94S FOG
ESCANABA       MOSUNNY   77  70  78 S12       29.91S
MENOMINEE      MOSUNNY   82  70  65 SW8       29.91S
SAWYER-GWINN   SUNNY     84  64  51 W9        29.92S
$$
MIZ001>003-009>011-084-020000-
WESTERN UPPER MICHIGAN

CITY           SKY/WX    TMP DP  RH WIND       PRES   REMARKS
IRON MOUNTAIN  MOSUNNY   82  68  62 SW6       29.92S
HOUGHTON       MOSUNNY   76  69  79 NW14      29.90S
IRONWOOD       PTSUNNY   81  73  78 CALM      29.88S
$$

ABBREVIATIONS USED IN REMARKS
   TC - TEMPERATURE IN CELSIUS
  WCI - WIND CHILL INDEX
   HX - HEAT INDEX
  VSB - VISIBILITY



USA.gov is the U.S. government's official web portal to all federal, state and local government web resources and services.